Terminal Aerodrome Forecast
Issued by NWS La Crosse, WI

Home | Current Version | Previous Version | Text Only | Print | Product List | Glossary On
Versions: 1 2 3 4 5 6 7 8 9 10 11 12 13 14 15 16 17 18 19 20 21 22 23 24 25 26 27 28 29 30 31 32 33 34 35 36 37 38 39 40 41 42 43 44 45 46 47 48 49 50
000
FTUS43 KARX 311805 AAA
TAFRST
TAF AMD
KRST 311805Z 3118/0118 19013G20KT P6SM SCT025
      TEMPO 3118/3120 BKN020
     FM312300 18009KT P6SM SCT035
     FM010600 19008KT 6SM BR SCT035
     FM011400 20009KT P6SM SCT035=

USA.gov is the U.S. government's official web portal to all federal, state and local government web resources and services.